• Processing (Info)

  • MPEC 2006-G04 : 2006 FH36

    The following Minor Planet Electronic Circular may be linked-to from your own Web pages, but must not otherwise be redistributed electronically.

    A form allowing access to any MPEC is at the bottom of this page.


    Read MPEC 2006-G03 Read MPEC 2006-G05


    M.P.E.C. 2006-G04                                Issued 2006 Apr. 1, 13:07 UT
    
         The Minor Planet Electronic Circulars contain information on unusual
             minor planets and routine data on comets.  They are published
       on behalf of Commission 20 of the International Astronomical Union by the
              Minor Planet Center, Smithsonian Astrophysical Observatory,
                              Cambridge, MA 02138, U.S.A.
    
                      Supported in part by the Brinson Foundation
                      Supported in part by the TABASGO Foundation
                 Prepared using the Tamkin Foundation Computer Network
    
                                  MPC@CFA.HARVARD.EDU
              URL http://cfa-www.harvard.edu/iau/mpc.html  ISSN 1523-6714
    
                                       2006 FH36
    
    Observations:
         K06F36H* C2006 03 31.44536 06 02 24.61 -44 39 22.1          18.5 V EG004E12
         K06F36H  C2006 03 31.45193 06 02 37.89 -44 39 10.0          18.6 V EG004E12
         K06F36H  C2006 03 31.45849 06 02 51.00 -44 38 58.1          18.4 V EG004E12
         K06F36H  C2006 03 31.46505 06 03 04.24 -44 38 45.1          18.7 V EG004E12
         K06F36H  C2006 03 31.52910 06 05 14.92 -44 36 30.7          18.6 V EG004E12
         K06F36H  C2006 03 31.53142 06 05 19.64 -44 36 24.5          18.2 V EG004E12
         K06F36H  C2006 03 31.53256 06 05 22.38 -44 36 20.9          18.4 V EG004E12
         K06F36H  C2006 03 31.53310 06 05 23.35 -44 36 20.4          18.5 V EG004E12
         K06F36H  C2006 03 31.53744 06 05 36.13 -44 34 33.9          18.4 R EG004474
         K06F36H  C2006 03 31.53906 06 05 39.58 -44 34 30.4          17.9 R EG004474
         K06F36H  C2006 03 31.55411 06 06 11.62 -44 33 58.5          18.5 R EG004474
         K06F36H  C2006 03 31.55480 06 06 13.06 -44 33 57.8          18.0 R EG004474
         K06F36H  C2006 03 31.55619 06 06 15.96 -44 33 54.0          18.1 R EG004474
         K06F36H  C2006 04 01.34462 06 33 36.57 -44 08 16.1          17.8 R EG004474
         K06F36H  C2006 04 01.34602 06 33 39.26 -44 08 11.2          17.9 R EG004474
         K06F36H  C2006 04 01.34774 06 33 42.58 -44 08 05.3          18.1 R EG004474
         K06F36H  C2006 04 01.39844 06 35 20.20 -44 05 00.6          17.9 R EG004474
         K06F36H  C2006 04 01.40203 06 35 27.17 -44 04 46.9          18.0 R EG004474
         K06F36H  C2006 04 01.40346 06 35 34.36 -44 06 14.2          18.4 V EG004E12
         K06F36H  C2006 04 01.40388 06 35 35.16 -44 06 13.1          18.3 V EG004E12
         K06F36H  C2006 04 01.40428 06 35 35.91 -44 06 09.9          17.7 V EG004E12
         K06F36H  C2006 04 01.40510 06 35 37.39 -44 06 07.9          18.6 V EG004E12
         K06F36H  C2006 04 01.40677 06 35 36.42 -44 04 28.7          18.2 R EG004474
         K06F36H  C2006 04 01.41060 06 35 46.05 -44 05 56.4          18.8 V EG004428
         K06F36H  C2006 04 01.41289 06 35 50.38 -44 05 47.2          18.6 V EG004428
         K06F36H  C2006 04 01.41518 06 35 54.60 -44 05 38.6          18.5 V EG004428
         K06F36H  C2006 04 01.51921 06 39 15.98 -43 58 26.3          18.0 V EG004E12
         K06F36H  C2006 04 01.52379 06 39 24.84 -43 58 05.5          18.7 V EG004E12
         K06F36H  C2006 04 01.53293 06 39 42.73 -43 57 24.8          18.4 V EG004E12
    
    Observer details:
    428 Reedy Creek.  Observer J. Broughton.  0.51-m f/2.7 reflector + CCD.
    474 Mount John Observatory, Lake Tekapo.  Observer A. C. Gilmore.  Measurers
        A. C. Gilmore, P. M. Kilmartin.  1.0-m f/7.7 reflector + CCD.
    E12 Siding Spring Survey.  Observer G. J. Garradd.  Measurers E. C. Beshore,
        E. J. Christensen, G. J. Garradd, A. R. Gibbs, A. D. Grauer, R. E. Hill,
        R. A. Kowalski, S. M. Larson, R. H. McNaught.  0.5-m Uppsala Schmidt + CCD.
    
    Orbital elements:
    2006 FH36                                                Earth MOID = 0.0153 AU
    Epoch 2006 Mar. 6.0 TT = JDT 2453800.5                  MPC
    M  65.40464              (2000.0)            P               Q
    n   1.05884034     Peri.  152.30070     +0.25076669     -0.96766713
    a   0.9533427      Node   283.16600     +0.88293377     +0.24012235
    e   0.1994721      Incl.    1.59699     +0.39691816     +0.07721125
    P   0.93           H   22.9           G   0.15           U   7
    Residuals in seconds of arc
    060331 E12  0.1-  0.2-    060331 474  0.1-  0.1-    060401 E12  0.2+  1.2+
    060331 E12  0.8+  0.1-    060331 474  0.5-  0.8-    060401 E12  0.6-  0.2+
    060331 E12  0.2-  0.5-    060331 474  1.2-  0.0     060401 474  0.1+  0.3-
    060331 E12  0.2-  0.1-    060401 474  0.5-  0.5-    060401 428  1.2+  0.2-
    060331 E12 (2.2-  0.9-)   060401 474  0.4-  0.4-    060401 428  1.1+  0.3+
    060331 E12 (3.0-  0.1+)   060401 474  0.2-  0.5-    060401 428  0.2-  0.2+
    060331 E12  1.0+  1.1+    060401 474  0.8-  0.4-    060401 E12  0.1+  0.5-
    060331 E12  0.6-  0.4+    060401 474  0.6-  0.3-    060401 E12  0.6-  0.1+
    060331 474  0.0   0.0     060401 E12  0.2+  0.1-    060401 E12  0.2-  0.3+
    060331 474  0.1+  0.1+    060401 E12  0.3+  0.5-
    
    Ephemeris:
    2006 FH36                a,e,i = 0.95, 0.20, 2                   q = 0.7632
    Date    TT    R. A. (2000) Decl.     Delta      r     Elong.  Phase     V
    2006 03 26    03 15.49   -37 52.4    0.0337   0.980    57.0   121.3    20.4
    2006 04 05    08 17.49   -38 14.9    0.0340   1.012   109.8    68.4    18.0
    2006 04 15    10 17.91   -21 26.1    0.0574   1.042   132.0    45.7    18.5
    2006 04 25    11 00.08   -13 39.0    0.0882   1.069   134.1    42.5    19.4
    2006 05 05    11 25.33   -09 58.6    0.123    1.092   130.5    44.6    20.2
    2006 05 15    11 45.74   -08 16.1    0.160    1.111   125.6    47.7    20.9
    2006 05 25    12 04.63   -07 38.9    0.198    1.126   120.3    50.9    21.5
    2006 06 04    12 23.47   -07 44.5    0.239    1.137   115.2    53.9    22.0
    2006 06 14    12 42.73   -08 19.4    0.279    1.143   110.3    56.5    22.5
    2006 06 24    13 02.53   -09 13.8    0.319    1.144   105.6    58.8    22.8
    
    Timothy B. Spahr             (C) Copyright 2006 MPC           M.P.E.C. 2006-G04
    

    Read MPEC 2006-G03 Read MPEC 2006-G05


    MPEC number:

    Enter an MPEC number in one of the following forms:

    • 1997-B01 (the full form)
    • J97B01 (the packed version of the full form)
    • B01 (the abbreviated form)